Year,Month,Day,Hour,Minute,Value (Times are PST for temperature in C)
2014,09,13,00,00,11.60
2014,09,13,00,01,11.60
2014,09,13,00,02,11.60
2014,09,13,00,03,11.60
2014,09,13,00,04,11.60
2014,09,13,00,05,11.50
2014,09,13,00,06,11.40
2014,09,13,00,07,11.40
2014,09,13,00,08,11.40
2014,09,13,00,09,11.40
2014,09,13,00,10,11.40
2014,09,13,00,11,11.40
2014,09,13,00,12,11.30
2014,09,13,00,13,11.30
2014,09,13,00,14,11.30
2014,09,13,00,15,11.20
2014,09,13,00,16,11.20
2014,09,13,00,17,11.20
2014,09,13,00,18,11.20
2014,09,13,00,19,11.10
2014,09,13,00,20,11.10
2014,09,13,00,21,11.10
2014,09,13,00,22,11.10
2014,09,13,00,23,11.10
2014,09,13,00,24,11.10
2014,09,13,00,25,11.10
2014,09,13,00,26,11.00
2014,09,13,00,27,10.90
2014,09,13,00,28,10.90
2014,09,13,00,29,10.90
2014,09,13,00,30,10.90
2014,09,13,00,31,10.90
2014,09,13,00,32,10.90
2014,09,13,00,33,10.90
2014,09,13,00,34,10.90
2014,09,13,00,35,10.80
2014,09,13,00,36,10.80
2014,09,13,00,37,10.80
2014,09,13,00,38,10.80
2014,09,13,00,39,10.80
2014,09,13,00,40,10.70
2014,09,13,00,41,10.70
2014,09,13,00,42,10.70
2014,09,13,00,43,10.60
2014,09,13,00,44,10.60
2014,09,13,00,45,10.60
2014,09,13,00,46,10.60
2014,09,13,00,47,10.60
2014,09,13,00,48,10.60
2014,09,13,00,49,10.60
2014,09,13,00,50,10.60
2014,09,13,00,51,10.60
2014,09,13,00,52,10.50
2014,09,13,00,53,10.40
2014,09,13,00,54,10.40
2014,09,13,00,55,10.40
2014,09,13,00,56,10.40
2014,09,13,00,57,10.40
2014,09,13,00,58,10.40
2014,09,13,00,59,10.30
2014,09,13,01,00,10.30
2014,09,13,01,01,10.30
2014,09,13,01,02,10.30
2014,09,13,01,03,10.30
2014,09,13,01,04,10.30
2014,09,13,01,05,10.30
2014,09,13,01,06,10.30
2014,09,13,01,07,10.30
2014,09,13,01,08,10.30
2014,09,13,01,09,10.30
2014,09,13,01,10,10.30
2014,09,13,01,11,10.30
2014,09,13,01,12,10.20
2014,09,13,01,13,10.20
2014,09,13,01,14,10.20
2014,09,13,01,15,10.20
2014,09,13,01,16,10.20
2014,09,13,01,17,10.20
2014,09,13,01,18,10.20
2014,09,13,01,19,10.20
2014,09,13,01,20,10.10
2014,09,13,01,21,10.10
2014,09,13,01,22,10.10
2014,09,13,01,23,10.10
2014,09,13,01,24,10.10
2014,09,13,01,25,10.10
2014,09,13,01,26,10.10
2014,09,13,01,27,10.10
2014,09,13,01,28,10.10
2014,09,13,01,29,10.10
2014,09,13,01,30,10.10
2014,09,13,01,31,10.10
2014,09,13,01,32,10.10
2014,09,13,01,33,10.10
2014,09,13,01,34,10.10
2014,09,13,01,35,10.10
2014,09,13,01,36,10.10
2014,09,13,01,37,10.00
2014,09,13,01,38,9.90
2014,09,13,01,39,9.90
2014,09,13,01,40,9.90
2014,09,13,01,41,9.90
2014,09,13,01,42,9.90
2014,09,13,01,43,9.90
2014,09,13,01,44,9.90
2014,09,13,01,45,9.90
2014,09,13,01,46,9.90
2014,09,13,01,47,9.90
2014,09,13,01,48,9.90
2014,09,13,01,49,9.90
2014,09,13,01,50,9.90
2014,09,13,01,51,9.90
2014,09,13,01,52,9.80
2014,09,13,01,53,9.80
2014,09,13,01,54,9.80
2014,09,13,01,55,9.80
2014,09,13,01,56,9.80
2014,09,13,01,57,9.80
2014,09,13,01,58,9.70
2014,09,13,01,59,9.70
2014,09,13,02,00,9.70
2014,09,13,02,01,9.70
2014,09,13,02,02,9.70
2014,09,13,02,03,9.80
2014,09,13,02,04,9.80
2014,09,13,02,05,9.80
2014,09,13,02,06,9.80
2014,09,13,02,07,9.80
2014,09,13,02,08,9.80
2014,09,13,02,09,9.80
2014,09,13,02,10,9.80
2014,09,13,02,11,9.80
2014,09,13,02,12,9.80
2014,09,13,02,13,9.70
2014,09,13,02,14,9.70
2014,09,13,02,15,9.70
2014,09,13,02,16,9.70
2014,09,13,02,17,9.70
2014,09,13,02,18,9.70
2014,09,13,02,19,9.70
2014,09,13,02,20,9.70
2014,09,13,02,21,9.70
2014,09,13,02,22,9.70
2014,09,13,02,23,9.70
2014,09,13,02,24,9.70
2014,09,13,02,25,9.70
2014,09,13,02,26,9.70
2014,09,13,02,27,9.70
2014,09,13,02,28,9.70
2014,09,13,02,29,9.70
2014,09,13,02,30,9.70
2014,09,13,02,31,9.70
2014,09,13,02,32,9.70
2014,09,13,02,33,9.60
2014,09,13,02,34,9.60
2014,09,13,02,35,9.60
2014,09,13,02,36,9.60
2014,09,13,02,37,9.60
2014,09,13,02,38,9.60
2014,09,13,02,39,9.60
2014,09,13,02,40,9.60
2014,09,13,02,41,9.60
2014,09,13,02,42,9.60
2014,09,13,02,43,9.60
2014,09,13,02,44,9.60
2014,09,13,02,45,9.60
2014,09,13,02,46,9.60
2014,09,13,02,47,9.60
2014,09,13,02,48,9.60
2014,09,13,02,49,9.60
2014,09,13,02,50,9.60
2014,09,13,02,51,9.50
2014,09,13,02,52,9.50
2014,09,13,02,53,9.50
2014,09,13,02,54,9.50
2014,09,13,02,55,9.50
2014,09,13,02,56,9.50
2014,09,13,02,57,9.50
2014,09,13,02,58,9.40
2014,09,13,02,59,9.40
2014,09,13,03,00,9.30
2014,09,13,03,01,9.30
2014,09,13,03,02,9.20
2014,09,13,03,03,9.20
2014,09,13,03,04,9.20
2014,09,13,03,05,9.10
2014,09,13,03,06,9.10
2014,09,13,03,07,9.00
2014,09,13,03,08,9.00
2014,09,13,03,09,9.00
2014,09,13,03,10,9.00
2014,09,13,03,11,9.00
2014,09,13,03,12,9.00
2014,09,13,03,13,9.00
2014,09,13,03,14,9.00
2014,09,13,03,15,9.00
2014,09,13,03,16,9.00
2014,09,13,03,17,9.00
2014,09,13,03,18,9.00
2014,09,13,03,19,9.00
2014,09,13,03,20,9.00
2014,09,13,03,21,9.10
2014,09,13,03,22,9.10
2014,09,13,03,23,9.10
2014,09,13,03,24,9.20
2014,09,13,03,25,9.20
2014,09,13,03,26,9.20
2014,09,13,03,27,9.20
2014,09,13,03,28,9.20
2014,09,13,03,29,9.20
2014,09,13,03,30,9.20
2014,09,13,03,31,9.20
2014,09,13,03,32,9.20
2014,09,13,03,33,9.20
2014,09,13,03,34,9.20
2014,09,13,03,35,9.20
2014,09,13,03,36,9.20
2014,09,13,03,37,9.30
2014,09,13,03,38,9.30
2014,09,13,03,39,9.30
2014,09,13,03,40,9.40
2014,09,13,03,41,9.40
2014,09,13,03,42,9.40
2014,09,13,03,43,9.40
2014,09,13,03,44,9.50
2014,09,13,03,45,9.50
2014,09,13,03,46,9.50
2014,09,13,03,47,9.50
2014,09,13,03,48,9.60
2014,09,13,03,49,9.60
2014,09,13,03,50,9.60
2014,09,13,03,51,9.60
2014,09,13,03,52,9.60
2014,09,13,03,53,9.50
2014,09,13,03,54,9.50
2014,09,13,03,55,9.50
2014,09,13,03,56,9.50
2014,09,13,03,57,9.50
2014,09,13,03,58,9.40
2014,09,13,03,59,9.40
2014,09,13,04,00,9.40
2014,09,13,04,01,9.30
2014,09,13,04,02,9.30
2014,09,13,04,03,9.30
2014,09,13,04,04,9.30
2014,09,13,04,05,9.20
2014,09,13,04,06,9.20
2014,09,13,04,07,9.20
2014,09,13,04,08,9.20
2014,09,13,04,09,9.20
2014,09,13,04,10,9.20
2014,09,13,04,11,9.20
2014,09,13,04,12,9.20
2014,09,13,04,13,9.20
2014,09,13,04,14,9.20
2014,09,13,04,15,9.20
2014,09,13,04,16,9.20
2014,09,13,04,17,9.20
2014,09,13,04,18,9.20
2014,09,13,04,19,9.20
2014,09,13,04,20,9.20
2014,09,13,04,21,9.20
2014,09,13,04,22,9.20
2014,09,13,04,23,9.30
2014,09,13,04,24,9.30
2014,09,13,04,25,9.30
2014,09,13,04,26,9.30
2014,09,13,04,27,9.40
2014,09,13,04,28,9.40
2014,09,13,04,29,9.50
2014,09,13,04,30,9.60
2014,09,13,04,31,9.60
2014,09,13,04,32,9.70
2014,09,13,04,33,9.80
2014,09,13,04,34,10.00
2014,09,13,04,35,10.20
2014,09,13,04,36,10.50
2014,09,13,04,37,10.80
2014,09,13,04,38,11.10
2014,09,13,04,39,11.40
2014,09,13,04,40,11.80
2014,09,13,04,41,12.10
2014,09,13,04,42,12.50
2014,09,13,04,43,12.80
2014,09,13,04,44,13.20
2014,09,13,04,45,13.50
2014,09,13,04,46,13.80
2014,09,13,04,47,14.00
2014,09,13,04,48,14.10
2014,09,13,04,49,14.20
2014,09,13,04,50,14.40
2014,09,13,04,51,14.50
2014,09,13,04,52,14.60
2014,09,13,04,53,14.70
2014,09,13,04,54,14.80
2014,09,13,04,55,14.90
2014,09,13,04,56,15.00
2014,09,13,04,57,15.10
2014,09,13,04,58,15.10
2014,09,13,04,59,15.20
2014,09,13,05,00,15.20
2014,09,13,05,01,15.30
2014,09,13,05,02,15.30
2014,09,13,05,03,15.30
2014,09,13,05,04,15.30
2014,09,13,05,05,15.40
2014,09,13,05,06,15.40
2014,09,13,05,07,15.40
2014,09,13,05,08,15.40
2014,09,13,05,09,15.50
2014,09,13,05,10,15.60
2014,09,13,05,11,15.60
2014,09,13,05,12,15.70
2014,09,13,05,13,15.70
2014,09,13,05,14,15.80
2014,09,13,05,15,15.80
2014,09,13,05,16,15.80
2014,09,13,05,17,15.90
2014,09,13,05,18,16.00
2014,09,13,05,19,16.10
2014,09,13,05,20,16.10
2014,09,13,05,21,16.10
2014,09,13,05,22,16.20
2014,09,13,05,23,16.20
2014,09,13,05,24,16.30
2014,09,13,05,25,16.30
2014,09,13,05,26,16.30
2014,09,13,05,27,16.30
2014,09,13,05,28,16.30
2014,09,13,05,29,16.30
2014,09,13,05,30,16.30
2014,09,13,05,31,16.30
2014,09,13,05,32,16.30
2014,09,13,05,33,16.30
2014,09,13,05,34,16.20
2014,09,13,05,35,16.20
2014,09,13,05,36,16.20
2014,09,13,05,37,16.10
2014,09,13,05,38,16.10
2014,09,13,05,39,16.10
2014,09,13,05,40,16.10
2014,09,13,05,41,16.10
2014,09,13,05,42,16.20
2014,09,13,05,43,16.20
2014,09,13,05,44,16.30
2014,09,13,05,45,16.30
2014,09,13,05,46,16.40
2014,09,13,05,47,16.40
2014,09,13,05,48,16.40
2014,09,13,05,49,16.40
2014,09,13,05,50,16.50
2014,09,13,05,51,16.60
2014,09,13,05,52,16.60
2014,09,13,05,53,16.70
2014,09,13,05,54,16.70
2014,09,13,05,55,16.70
2014,09,13,05,56,16.80
2014,09,13,05,57,16.80
2014,09,13,05,58,16.80
2014,09,13,05,59,16.90
2014,09,13,06,00,16.90
2014,09,13,06,01,16.80
2014,09,13,06,02,16.80
2014,09,13,06,03,16.80
2014,09,13,06,04,16.70
2014,09,13,06,05,16.70
2014,09,13,06,06,16.70
2014,09,13,06,07,16.60
2014,09,13,06,08,16.50
2014,09,13,06,09,16.40
2014,09,13,06,10,16.40
2014,09,13,06,11,16.40
2014,09,13,06,12,16.40
2014,09,13,06,13,16.40
2014,09,13,06,14,16.40
2014,09,13,06,15,16.30
2014,09,13,06,16,16.30
2014,09,13,06,17,16.30
2014,09,13,06,18,16.20
2014,09,13,06,19,16.20
2014,09,13,06,20,16.10
2014,09,13,06,21,16.00
2014,09,13,06,22,15.80
2014,09,13,06,23,15.70
2014,09,13,06,24,15.60
2014,09,13,06,25,15.50
2014,09,13,06,26,15.50
2014,09,13,06,27,15.30
2014,09,13,06,28,15.20
2014,09,13,06,29,15.10
2014,09,13,06,30,15.00
2014,09,13,06,31,14.90
2014,09,13,06,32,14.80
2014,09,13,06,33,14.70
2014,09,13,06,34,14.60
2014,09,13,06,35,14.50
2014,09,13,06,36,14.40
2014,09,13,06,37,14.30
2014,09,13,06,38,14.10
2014,09,13,06,39,13.90
2014,09,13,06,40,13.70
2014,09,13,06,41,13.50
2014,09,13,06,42,13.30
2014,09,13,06,43,13.10
2014,09,13,06,44,12.90
2014,09,13,06,45,12.80
2014,09,13,06,46,12.60
2014,09,13,06,47,12.40
2014,09,13,06,48,12.30
2014,09,13,06,49,12.20
2014,09,13,06,50,12.10
2014,09,13,06,51,12.00
2014,09,13,06,52,11.90
2014,09,13,06,53,11.90
2014,09,13,06,54,12.00
2014,09,13,06,55,12.00
2014,09,13,06,56,12.00
2014,09,13,06,57,12.00
2014,09,13,06,58,12.00
2014,09,13,06,59,12.10
2014,09,13,07,00,12.20
2014,09,13,07,01,12.30
2014,09,13,07,02,12.30
2014,09,13,07,03,12.30
2014,09,13,07,04,12.30
2014,09,13,07,05,12.40
2014,09,13,07,06,12.40
2014,09,13,07,07,12.40
2014,09,13,07,08,12.40
2014,09,13,07,09,12.30
2014,09,13,07,10,12.30
2014,09,13,07,11,12.30
2014,09,13,07,12,12.30
2014,09,13,07,13,12.30
2014,09,13,07,14,12.30
2014,09,13,07,15,12.30
2014,09,13,07,16,12.30
2014,09,13,07,17,12.20
2014,09,13,07,18,12.20
2014,09,13,07,19,12.20
2014,09,13,07,20,12.20
2014,09,13,07,21,12.20
2014,09,13,07,22,12.20
2014,09,13,07,23,12.20
2014,09,13,07,24,12.20
2014,09,13,07,25,12.30
2014,09,13,07,26,12.30
2014,09,13,07,27,12.30
2014,09,13,07,28,12.40
2014,09,13,07,29,12.40
2014,09,13,07,30,12.50
2014,09,13,07,31,12.50
2014,09,13,07,32,12.60
2014,09,13,07,33,12.60
2014,09,13,07,34,12.70
2014,09,13,07,35,12.70
2014,09,13,07,36,12.70
2014,09,13,07,37,12.80
2014,09,13,07,38,12.80
2014,09,13,07,39,12.80
2014,09,13,07,40,12.80
2014,09,13,07,41,12.80
2014,09,13,07,42,12.90
2014,09,13,07,43,13.00
2014,09,13,07,44,13.00
2014,09,13,07,45,13.10
2014,09,13,07,46,13.10
2014,09,13,07,47,13.20
2014,09,13,07,48,13.20
2014,09,13,07,49,13.30
2014,09,13,07,50,13.30
2014,09,13,07,51,13.40
2014,09,13,07,52,13.50
2014,09,13,07,53,13.50
2014,09,13,07,54,13.60
2014,09,13,07,55,13.70
2014,09,13,07,56,13.90
2014,09,13,07,57,14.10
2014,09,13,07,58,14.30
2014,09,13,07,59,14.60
2014,09,13,08,00,14.80
2014,09,13,08,01,15.00
2014,09,13,08,02,15.10
2014,09,13,08,03,15.30
2014,09,13,08,04,15.40
2014,09,13,08,05,15.60
2014,09,13,08,06,15.70
2014,09,13,08,07,15.90
2014,09,13,08,08,16.10
2014,09,13,08,09,16.20
2014,09,13,08,10,16.30
2014,09,13,08,11,16.40
2014,09,13,08,12,16.50
2014,09,13,08,13,16.60
2014,09,13,08,14,16.70
2014,09,13,08,15,16.70
2014,09,13,08,16,16.70
2014,09,13,08,17,16.80
2014,09,13,08,18,16.90
2014,09,13,08,19,16.90
2014,09,13,08,20,17.00
2014,09,13,08,21,17.00
2014,09,13,08,22,17.10
2014,09,13,08,23,17.20
2014,09,13,08,24,17.20
2014,09,13,08,25,17.30
2014,09,13,08,26,17.40
2014,09,13,08,27,17.50
2014,09,13,08,28,17.50
2014,09,13,08,29,17.60
2014,09,13,08,30,17.70
2014,09,13,08,31,17.80
2014,09,13,08,32,17.80
2014,09,13,08,33,17.90
2014,09,13,08,34,18.00
2014,09,13,08,35,18.10
2014,09,13,08,36,18.20
2014,09,13,08,37,18.20
2014,09,13,08,38,18.30
2014,09,13,08,39,18.30
2014,09,13,08,40,18.40
2014,09,13,08,41,18.50
2014,09,13,08,42,18.50
2014,09,13,08,43,18.60
2014,09,13,08,44,18.70
2014,09,13,08,45,18.70
2014,09,13,08,46,18.90
2014,09,13,08,47,18.90
2014,09,13,08,48,19.00
2014,09,13,08,49,19.10
2014,09,13,08,50,19.10
2014,09,13,08,51,19.10
2014,09,13,08,52,19.10
2014,09,13,08,53,19.20
2014,09,13,08,54,19.20
2014,09,13,08,55,19.20
2014,09,13,08,56,19.10
2014,09,13,08,57,19.10
2014,09,13,08,58,19.20
2014,09,13,08,59,19.20
2014,09,13,09,00,19.20
2014,09,13,09,01,19.30
2014,09,13,09,02,19.30
2014,09,13,09,03,19.30
2014,09,13,09,04,19.40
2014,09,13,09,05,19.40
2014,09,13,09,06,19.50
2014,09,13,09,07,19.50
2014,09,13,09,08,19.50
2014,09,13,09,09,19.60
2014,09,13,09,10,19.60
2014,09,13,09,11,19.60
2014,09,13,09,12,19.70
2014,09,13,09,13,19.70
2014,09,13,09,14,19.70
2014,09,13,09,15,19.80
2014,09,13,09,16,19.80
2014,09,13,09,17,19.90
2014,09,13,09,18,19.90
2014,09,13,09,19,19.90
2014,09,13,09,20,19.90
2014,09,13,09,21,19.90
2014,09,13,09,22,20.00
2014,09,13,09,23,20.10
2014,09,13,09,24,20.10
2014,09,13,09,25,20.20
2014,09,13,09,26,20.20
2014,09,13,09,27,20.20
2014,09,13,09,28,20.20
2014,09,13,09,29,20.20
2014,09,13,09,30,20.20
2014,09,13,09,31,20.20
2014,09,13,09,32,20.20
2014,09,13,09,33,20.30
2014,09,13,09,34,20.30
2014,09,13,09,35,20.40
2014,09,13,09,36,20.40
2014,09,13,09,37,20.40
2014,09,13,09,38,20.40
2014,09,13,09,39,20.40
2014,09,13,09,40,20.40
2014,09,13,09,41,20.50
2014,09,13,09,42,20.50
2014,09,13,09,43,20.50
2014,09,13,09,44,20.60
2014,09,13,09,45,20.60
2014,09,13,09,46,20.70
2014,09,13,09,47,20.70
2014,09,13,09,48,20.70
2014,09,13,09,49,20.80
2014,09,13,09,50,20.80
2014,09,13,09,51,20.80
2014,09,13,09,52,20.90
2014,09,13,09,53,20.90
2014,09,13,09,54,20.90
2014,09,13,09,55,20.90
2014,09,13,09,56,20.90
2014,09,13,09,57,20.90
2014,09,13,09,58,20.90
2014,09,13,09,59,20.90
2014,09,13,10,00,20.90
2014,09,13,10,01,20.80
2014,09,13,10,02,20.90
2014,09,13,10,03,21.00
2014,09,13,10,04,21.00
2014,09,13,10,05,21.00
2014,09,13,10,06,21.10
2014,09,13,10,07,21.10
2014,09,13,10,08,21.20
2014,09,13,10,09,21.20
2014,09,13,10,10,21.20
2014,09,13,10,11,21.20
2014,09,13,10,12,21.10
2014,09,13,10,13,21.10
2014,09,13,10,14,21.10
2014,09,13,10,15,21.20
2014,09,13,10,16,21.30
2014,09,13,10,17,21.30
2014,09,13,10,18,21.30
2014,09,13,10,19,21.30
2014,09,13,10,20,21.30
2014,09,13,10,21,21.30
2014,09,13,10,22,21.30
2014,09,13,10,23,21.30
2014,09,13,10,24,21.30
2014,09,13,10,25,21.30
2014,09,13,10,26,21.30
2014,09,13,10,27,21.30
2014,09,13,10,28,21.30
2014,09,13,10,29,21.30
2014,09,13,10,30,21.40
2014,09,13,10,31,21.40
2014,09,13,10,32,21.40
2014,09,13,10,33,21.40
2014,09,13,10,34,21.40
2014,09,13,10,35,21.40
2014,09,13,10,36,21.40
2014,09,13,10,37,21.30
2014,09,13,10,38,21.30
2014,09,13,10,39,21.30
2014,09,13,10,40,21.40
2014,09,13,10,41,21.40
2014,09,13,10,42,21.40
2014,09,13,10,43,21.40
2014,09,13,10,44,21.40
2014,09,13,10,45,21.40
2014,09,13,10,46,21.40
2014,09,13,10,47,21.40
2014,09,13,10,48,21.40
2014,09,13,10,49,21.40
2014,09,13,10,50,21.50
2014,09,13,10,51,21.60
2014,09,13,10,52,21.60
2014,09,13,10,53,21.60
2014,09,13,10,54,21.60
2014,09,13,10,55,21.60
2014,09,13,10,56,21.60
2014,09,13,10,57,21.60
2014,09,13,10,58,21.60
2014,09,13,10,59,21.60
2014,09,13,11,00,21.60
2014,09,13,11,01,21.60
2014,09,13,11,02,21.60
2014,09,13,11,03,21.60
2014,09,13,11,04,21.70
2014,09,13,11,05,21.70
2014,09,13,11,06,21.70
2014,09,13,11,07,21.70
2014,09,13,11,08,21.70
2014,09,13,11,09,21.80
2014,09,13,11,10,21.80
2014,09,13,11,11,21.90
2014,09,13,11,12,22.00
2014,09,13,11,13,22.00
2014,09,13,11,14,22.10
2014,09,13,11,15,22.00
2014,09,13,11,16,22.00
2014,09,13,11,17,22.00
2014,09,13,11,18,22.00
2014,09,13,11,19,21.90
2014,09,13,11,20,21.90
2014,09,13,11,21,21.80
2014,09,13,11,22,21.80
2014,09,13,11,23,21.80
2014,09,13,11,24,21.80
2014,09,13,11,25,21.70
2014,09,13,11,26,21.80
2014,09,13,11,27,21.80
2014,09,13,11,28,21.80
2014,09,13,11,29,21.90
2014,09,13,11,30,22.00
2014,09,13,11,31,22.10
2014,09,13,11,32,22.20
2014,09,13,11,33,22.30
2014,09,13,11,34,22.40
2014,09,13,11,35,22.30
2014,09,13,11,36,22.20
2014,09,13,11,37,22.20
2014,09,13,11,38,22.10
2014,09,13,11,39,22.00
2014,09,13,11,40,22.00
2014,09,13,11,41,21.90
2014,09,13,11,42,21.90
2014,09,13,11,43,21.90
2014,09,13,11,44,21.90
2014,09,13,11,45,21.90
2014,09,13,11,46,21.90
2014,09,13,11,47,21.90
2014,09,13,11,48,22.00
2014,09,13,11,49,22.00
2014,09,13,11,50,22.00
2014,09,13,11,51,22.10
2014,09,13,11,52,22.10
2014,09,13,11,53,22.00
2014,09,13,11,54,22.00
2014,09,13,11,55,22.00
2014,09,13,11,56,22.10
2014,09,13,11,57,22.20
2014,09,13,11,58,22.30
2014,09,13,11,59,22.30
2014,09,13,12,00,22.40
2014,09,13,12,01,22.40
2014,09,13,12,02,22.50
2014,09,13,12,03,22.50
2014,09,13,12,04,22.50
2014,09,13,12,05,22.50
2014,09,13,12,06,22.50
2014,09,13,12,07,22.40
2014,09,13,12,08,22.40
2014,09,13,12,09,22.40
2014,09,13,12,10,22.30
2014,09,13,12,11,22.20
2014,09,13,12,12,22.20
2014,09,13,12,13,22.20
2014,09,13,12,14,22.30
2014,09,13,12,15,22.30
2014,09,13,12,16,22.30
2014,09,13,12,17,22.30
2014,09,13,12,18,22.20
2014,09,13,12,19,22.20
2014,09,13,12,20,22.10
2014,09,13,12,21,22.10
2014,09,13,12,22,22.10
2014,09,13,12,23,22.10
2014,09,13,12,24,22.10
2014,09,13,12,25,22.10
2014,09,13,12,26,22.10
2014,09,13,12,27,22.10
2014,09,13,12,28,22.10
2014,09,13,12,29,22.20
2014,09,13,12,30,22.20
2014,09,13,12,31,22.20
2014,09,13,12,32,22.30
2014,09,13,12,33,22.40
2014,09,13,12,34,22.50
2014,09,13,12,35,22.50
2014,09,13,12,36,22.60
2014,09,13,12,37,22.70
2014,09,13,12,38,22.70
2014,09,13,12,39,22.70
2014,09,13,12,40,22.60
2014,09,13,12,41,22.60
2014,09,13,12,42,22.60
2014,09,13,12,43,22.60
2014,09,13,12,44,22.70
2014,09,13,12,45,22.80
2014,09,13,12,46,22.80
2014,09,13,12,47,22.90
2014,09,13,12,48,22.90
2014,09,13,12,49,22.90
2014,09,13,12,50,22.90
2014,09,13,12,51,22.80
2014,09,13,12,52,22.80
2014,09,13,12,53,22.90
2014,09,13,12,54,22.90
2014,09,13,12,55,22.90
2014,09,13,12,56,22.80
2014,09,13,12,57,22.70
2014,09,13,12,58,22.70
2014,09,13,12,59,22.60
2014,09,13,13,00,22.60
2014,09,13,13,01,22.60
2014,09,13,13,02,22.60
2014,09,13,13,03,22.60
2014,09,13,13,04,22.60
2014,09,13,13,05,22.60
2014,09,13,13,06,22.60
2014,09,13,13,07,22.60
2014,09,13,13,08,22.50
2014,09,13,13,09,22.50
2014,09,13,13,10,22.50
2014,09,13,13,11,22.60
2014,09,13,13,12,22.60
2014,09,13,13,13,22.60
2014,09,13,13,14,22.70
2014,09,13,13,15,22.80
2014,09,13,13,16,22.80
2014,09,13,13,17,22.80
2014,09,13,13,18,22.80
2014,09,13,13,19,22.80
2014,09,13,13,20,22.80
2014,09,13,13,21,22.90
2014,09,13,13,22,22.90
2014,09,13,13,23,22.90
2014,09,13,13,24,22.90
2014,09,13,13,25,22.90
2014,09,13,13,26,22.90
2014,09,13,13,27,22.90
2014,09,13,13,28,23.00
2014,09,13,13,29,23.10
2014,09,13,13,30,23.20
2014,09,13,13,31,23.20
2014,09,13,13,32,23.10
2014,09,13,13,33,23.10
2014,09,13,13,34,23.10
2014,09,13,13,35,23.20
2014,09,13,13,36,23.20
2014,09,13,13,37,23.20
2014,09,13,13,38,23.10
2014,09,13,13,39,23.10
2014,09,13,13,40,23.10
2014,09,13,13,41,23.10
2014,09,13,13,42,23.20
2014,09,13,13,43,23.30
2014,09,13,13,44,23.40
2014,09,13,13,45,23.40
2014,09,13,13,46,23.50
2014,09,13,13,47,23.60
2014,09,13,13,48,23.60
2014,09,13,13,49,23.70
2014,09,13,13,50,23.70
2014,09,13,13,51,23.70
2014,09,13,13,52,23.70
2014,09,13,13,53,23.70
2014,09,13,13,54,23.70
2014,09,13,13,55,23.60
2014,09,13,13,56,23.60
2014,09,13,13,57,23.60
2014,09,13,13,58,23.60
2014,09,13,13,59,23.70
2014,09,13,14,00,23.70
2014,09,13,14,01,23.70
2014,09,13,14,02,23.70
2014,09,13,14,03,23.80
2014,09,13,14,04,23.80
2014,09,13,14,05,23.80
2014,09,13,14,06,23.80
2014,09,13,14,07,23.70
2014,09,13,14,08,23.80
2014,09,13,14,09,23.80
2014,09,13,14,10,23.90
2014,09,13,14,11,24.00
2014,09,13,14,12,24.10
2014,09,13,14,13,24.10
2014,09,13,14,14,24.10
2014,09,13,14,15,24.10
2014,09,13,14,16,24.00
2014,09,13,14,17,24.10
2014,09,13,14,18,24.10
2014,09,13,14,19,24.20
2014,09,13,14,20,24.40
2014,09,13,14,21,24.40
2014,09,13,14,22,24.50
2014,09,13,14,23,24.60
2014,09,13,14,24,24.60
2014,09,13,14,25,24.60
2014,09,13,14,26,24.60
2014,09,13,14,27,24.50
2014,09,13,14,28,24.50
2014,09,13,14,29,24.50
2014,09,13,14,30,24.50
2014,09,13,14,31,24.60
2014,09,13,14,32,24.50
2014,09,13,14,33,24.60
2014,09,13,14,34,24.70
2014,09,13,14,35,24.70
2014,09,13,14,36,24.70
2014,09,13,14,37,24.60
2014,09,13,14,38,24.60
2014,09,13,14,39,24.50
2014,09,13,14,40,24.40
2014,09,13,14,41,24.40
2014,09,13,14,42,24.30
2014,09,13,14,43,24.30
2014,09,13,14,44,24.30
2014,09,13,14,45,24.30
2014,09,13,14,46,24.30
2014,09,13,14,47,24.40
2014,09,13,14,48,24.50
2014,09,13,14,49,24.70
2014,09,13,14,50,24.80
2014,09,13,14,51,24.90
2014,09,13,14,52,24.90
2014,09,13,14,53,24.80
2014,09,13,14,54,24.80
2014,09,13,14,55,24.70
2014,09,13,14,56,24.70
2014,09,13,14,57,24.70
2014,09,13,14,58,24.70
2014,09,13,14,59,24.70
2014,09,13,15,00,24.70
2014,09,13,15,01,24.60
2014,09,13,15,02,24.60
2014,09,13,15,03,24.60
2014,09,13,15,04,24.60
2014,09,13,15,05,24.60
2014,09,13,15,06,24.70
2014,09,13,15,07,24.70
2014,09,13,15,08,24.70
2014,09,13,15,09,24.70
2014,09,13,15,10,24.70
2014,09,13,15,11,24.80
2014,09,13,15,12,24.80
2014,09,13,15,13,24.70
2014,09,13,15,14,24.70
2014,09,13,15,15,24.70
2014,09,13,15,16,24.80
2014,09,13,15,17,24.90
2014,09,13,15,18,24.90
2014,09,13,15,19,24.90
2014,09,13,15,20,24.80
2014,09,13,15,21,24.70
2014,09,13,15,22,24.80
2014,09,13,15,23,24.90
2014,09,13,15,24,25.00
2014,09,13,15,25,25.00
2014,09,13,15,26,25.00
2014,09,13,15,27,25.00
2014,09,13,15,28,25.00
2014,09,13,15,29,25.00
2014,09,13,15,30,25.00
2014,09,13,15,31,25.00
2014,09,13,15,32,25.10
2014,09,13,15,33,25.20
2014,09,13,15,34,25.40
2014,09,13,15,35,25.40
2014,09,13,15,36,25.50
2014,09,13,15,37,25.70
2014,09,13,15,38,25.70
2014,09,13,15,39,25.70
2014,09,13,15,40,25.60
2014,09,13,15,41,25.50
2014,09,13,15,42,25.40
2014,09,13,15,43,25.50
2014,09,13,15,44,25.50
2014,09,13,15,45,25.40
2014,09,13,15,46,25.50
2014,09,13,15,47,25.50
2014,09,13,15,48,25.50
2014,09,13,15,49,25.50
2014,09,13,15,50,25.50
2014,09,13,15,51,25.50
2014,09,13,15,52,25.60
2014,09,13,15,53,25.60
2014,09,13,15,54,25.60
2014,09,13,15,55,25.60
2014,09,13,15,56,25.50
2014,09,13,15,57,25.50
2014,09,13,15,58,25.40
2014,09,13,15,59,25.40
2014,09,13,16,00,25.40
2014,09,13,16,01,25.30
2014,09,13,16,02,25.30
2014,09,13,16,03,25.30
2014,09,13,16,04,25.30
2014,09,13,16,05,25.30
2014,09,13,16,06,25.30
2014,09,13,16,07,25.30
2014,09,13,16,08,25.30
2014,09,13,16,09,25.40
2014,09,13,16,10,25.50
2014,09,13,16,11,25.60
2014,09,13,16,12,25.60
2014,09,13,16,13,25.70
2014,09,13,16,14,25.80
2014,09,13,16,15,25.80
2014,09,13,16,16,25.90
2014,09,13,16,17,25.90
2014,09,13,16,18,25.90
2014,09,13,16,19,25.90
2014,09,13,16,20,25.90
2014,09,13,16,21,25.90
2014,09,13,16,22,25.80
2014,09,13,16,23,25.80
2014,09,13,16,24,25.60
2014,09,13,16,25,25.50
2014,09,13,16,26,25.40
2014,09,13,16,27,25.40
2014,09,13,16,28,25.30
2014,09,13,16,29,25.30
2014,09,13,16,30,25.40
2014,09,13,16,31,25.50
2014,09,13,16,32,25.70
2014,09,13,16,33,25.80
2014,09,13,16,34,25.90
2014,09,13,16,35,26.00
2014,09,13,16,36,25.90
2014,09,13,16,37,25.90
2014,09,13,16,38,25.90
2014,09,13,16,39,25.80
2014,09,13,16,40,25.70
2014,09,13,16,41,25.60
2014,09,13,16,42,25.60
2014,09,13,16,43,25.50
2014,09,13,16,44,25.50
2014,09,13,16,45,25.60
2014,09,13,16,46,25.70
2014,09,13,16,47,25.70
2014,09,13,16,48,25.70
2014,09,13,16,49,25.80
2014,09,13,16,50,25.80
2014,09,13,16,51,25.70
2014,09,13,16,52,25.70
2014,09,13,16,53,25.60
2014,09,13,16,54,25.60
2014,09,13,16,55,25.50
2014,09,13,16,56,25.50
2014,09,13,16,57,25.50
2014,09,13,16,58,25.60
2014,09,13,16,59,25.60
2014,09,13,17,00,25.70
2014,09,13,17,01,25.80
2014,09,13,17,02,25.90
2014,09,13,17,03,26.00
2014,09,13,17,04,26.10
2014,09,13,17,05,26.10
2014,09,13,17,06,26.10
2014,09,13,17,07,26.20
2014,09,13,17,08,26.30
2014,09,13,17,09,26.40
2014,09,13,17,10,26.40
2014,09,13,17,11,26.60
2014,09,13,17,12,26.60
2014,09,13,17,13,26.60
2014,09,13,17,14,26.50
2014,09,13,17,15,26.40
2014,09,13,17,16,26.40
2014,09,13,17,17,26.40
2014,09,13,17,18,26.30
2014,09,13,17,19,26.20
2014,09,13,17,20,26.00
2014,09,13,17,21,26.00
2014,09,13,17,22,25.90
2014,09,13,17,23,25.90
2014,09,13,17,24,25.90
2014,09,13,17,25,25.80
2014,09,13,17,26,25.80
2014,09,13,17,27,25.80